Location: Ocean City
(38.3360°N, 75.0850°W)
Time: 23:54:33
(UTC-04:00)

MOZHAYETS 4 - Pass Details

Date: 23 May 2019
Orbit: 661 x 681 km, 98.0° (Epoch: 16 June)

Event Time Altitude Azimuth Distance (km) Brightness Sun altitude
Exits shadow 01:53:33 12° 93° (E) 1,995 10.3 -29.7°
Maximum altitude 01:55:35 15° 65° (ENE) 1,791 10.3 -29.6°
Drops below altitude 10° 01:58:11 10° 30° (NNE) 2,111 11.2 -29.4°
Sets 02:01:16 0° 8° (N) 3,025 12.3 -29.2°
